Wind_Speed
59 58 55 55 58 59 58 55 54 52 49 47 47 44 38 34 32 31 29 26 24 23 23 25 26 28 31 31 29 28 27 24 23 23 17 12 16 21 22 21 18 15 12 11 10 5 2 2 0 3 4 2 2 3 4 7 9 11 14 18 19 21 24 26 25 23 22 22 22 21 21 20 18 17 15 15 16 18 20 19 19 20 20 20 20 20
60 58 56 58 61 62 60 58 56 54 51 50 49 46 41 37 34 33 30 28 25 24 23 24 25 28 31 32 30 30 29 25 25 24 18 15 21 24 25 23 18 15 14 12 10 6 3 4 1 4 5 5 3 3 5 7 10 12 15 19 20 21 25 27 26 24 23 22 21 21 20 19 18 17 16 16 17 19 19 18 18 18 18 19 19 19
61 58 59 63 64 63 62 60 59 56 54 53 52 49 45 40 37 35 32 30 27 25 26 25 26 29 33 34 33 32 31 28 27 26 21 20 26 28 27 24 18 16 15 12 10 7 4 5 3 4 6 6 6 5 5 7 10 12 16 19 21 22 25 27 27 25 23 22 20 19 19 18 17 17 17 18 18 18 18 18 17 17 17 17 18 18
62 62 64 67 66 65 63 62 61 59 57 56 55 52 49 44 40 38 36 34 32 29 28 27 27 30 33 35 35 34 33 31 30 30 27 26 30 29 25 22 18 15 14 13 10 8 5 4 5 5 6 7 7 5 4 5 8 12 15 19 20 22 24 26 26 25 24 21 19 18 17 17 17 17 18 19 19 18 17 16 16 16 16 16 17 17
65 66 68 68 67 65 64 63 63 62 60 59 58 55 52 48 44 42 40 37 35 31 27 26 27 29 32 36 37 36 35 35 34 32 31 30 30 27 23 21 18 14 12 13 10 8 6 3 5 5 6 8 8 7 6 5 7 11 15 17 19 20 22 24 25 25 23 21 18 18 17 18 18 19 19 19 18 17 16 15 15 15 15 15 16 16
67 68 69 68 67 66 65 64 64 64 63 62 60 57 56 53 48 45 43 40 38 34 31 30 29 29 31 34 36 36 36 36 35 35 32 29 28 27 24 22 19 15 12 13 12 9 8 6 4 6 6 8 9 8 9 8 8 11 15 16 18 20 21 23 24 24 23 21 19 18 19 19 20 20 19 18 17 16 15 13 13 13 14 14 15 15
70 70 70 69 68 67 67 66 66 66 65 63 62 61 60 56 51 48 45 43 41 38 36 34 32 32 32 33 35 36 35 35 35 35 33 30 30 29 26 23 19 15 14 15 14 10 8 8 5 6 7 8 9 10 10 10 10 12 14 15 17 19 20 22 23 23 23 22 21 21 21 22 22 21 19 17 15 14 13 12 12 12 12 13 13 14
73 74 72 70 69 69 68 68 68 68 66 64 65 65 62 59 55 51 48 46 44 43 39 36 34 33 31 32 33 34 34 34 34 33 33 32 31 29 25 22 19 17 17 17 14 10 8 9 9 5 7 9 10 11 11 10 10 11 12 14 17 18 20 21 22 23 23 23 23 23 23 22 21 19 18 16 15 13 12 11 11 11 11 11 12 12
79 78 75 72 71 70 70 71 71 70 67 67 69 67 65 62 59 56 53 50 49 46 41 38 37 34 32 33 33 32 33 34 33 33 33 32 29 27 24 23 21 20 19 17 14 12 10 11 12 8 6 8 9 11 12 10 10 11 12 14 16 18 20 21 22 23 24 25 25 25 23 21 19 18 17 15 14 13 11 10 10 10 10 10 11 11
83 82 80 76 74 73 72 74 74 71 69 70 71 68 66 64 63 62 58 54 52 48 42 41 39 37 37 36 34 33 33 34 33 32 33 32 30 29 27 26 25 21 18 16 15 15 13 12 12 11 8 8 9 11 13 13 12 13 14 14 16 18 20 21 22 23 24 25 25 24 22 20 19 17 16 14 13 12 10 9 9 8 8 9 9 10
88 87 85 79 76 75 76 76 75 71 70 72 71 68 69 69 68 66 61 58 55 48 45 44 42 42 41 38 36 35 35 35 34 32 32 31 31 31 29 28 25 23 20 18 18 18 15 13 12 13 12 10 11 12 13 14 13 14 15 15 17 19 21 22 23 23 24 24 24 22 21 19 18 17 15 13 12 11 10 9 8 7 7 7 7 8
92 91 88 84 80 80 79 78 75 72 71 72 71 70 71 73 71 68 64 61 55 49 48 48 46 46 44 41 39 38 38 38 37 34 32 31 31 30 28 27 25 23 23 22 21 19 15 13 13 16 16 14 13 14 13 12 13 14 15 15 17 20 22 24 24 25 24 23 22 21 20 19 18 17 15 14 12 11 11 10 9 8 7 6 6 6
95 93 91 90 87 85 84 81 78 74 73 73 73 71 72 74 74 71 67 63 56 52 52 52 50 49 46 45 44 42 41 41 39 37 35 33 31 29 29 29 27 24 24 23 22 19 16 14 15 18 19 15 13 15 15 13 13 13 14 15 17 20 22 24 25 25 24 23 22 21 20 20 19 17 16 15 13 12 11 10 10 9 8 6 5 4
95 94 94 94 91 89 87 85 81 78 76 76 76 74 73 75 74 71 69 66 60 57 57 57 55 51 49 49 48 46 45 44 42 41 38 35 33 31 31 31 28 25 24 24 22 21 18 17 18 20 20 17 15 15 17 17 15 14 14 15 16 18 21 23 25 25 24 23 23 22 21 21 19 18 17 15 14 12 11 10 10 9 7 5 4 3
96 96 96 96 94 92 90 89 85 83 81 80 79 77 76 76 76 73 71 69 65 62 62 61 58 53 52 53 52 50 50 48 47 44 41 38 35 33 32 30 28 27 27 26 25 23 20 19 20 21 21 20 17 16 17 18 18 18 17 17 17 17 19 22 24 24 23 23 23 23 23 22 21 19 18 17 15 14 12 11 10 9 7 6 5 4
99 98 98 98 97 95 94 93 91 88 87 85 83 81 78 77 77 75 73 72 69 67 65 64 60 56 56 58 56 54 52 51 50 47 44 42 39 36 34 30 29 30 30 29 28 26 23 22 24 24 23 21 19 17 16 17 18 18 18 18 19 19 18 19 21 22 21 22 23 24 24 24 22 21 19 18 17 15 14 13 12 11 10 8 7 7
101 100 101 100 98 96 96 96 95 93 90 88 86 83 78 76 78 77 74 73 73 70 68 66 63 60 60 61 59 55 54 54 53 51 48 45 42 41 38 35 33 33 33 31 31 29 26 26 28 26 23 22 20 18 16 16 18 18 18 18 19 20 20 20 20 20 20 22 23 25 25 25 24 23 21 20 18 17 17 16 15 14 12 11 10 9
103 103 104 101 97 96 96 97 98 96 93 91 90 86 81 79 80 79 76 75 75 72 70 67 64 63 61 61 60 58 58 58 57 55 52 48 47 45 42 40 38 37 35 34 33 31 28 29 30 26 24 23 21 19 18 17 18 19 20 20 20 21 21 21 20 20 20 21 23 25 26 26 26 25 23 22 20 20 19 19 17 16 14 13 13 12
104 105 106 102 96 96 98 99 100 99 96 95 94 91 86 83 83 81 78 76 75 74 73 70 67 66 64 62 63 62 62 62 61 58 55 52 50 47 45 44 42 40 38 37 35 32 30 31 30 27 25 24 22 21 20 19 18 19 21 22 23 22 21 21 20 20 20 21 22 25 26 27 26 26 25 24 24 23 22 21 19 18 16 15 16 15
106 108 107 102 99 100 102 102 101 101 100 99 98 94 89 86 85 83 79 76 76 76 76 73 70 68 67 65 66 67 66 65 63 61 58 55 52 50 48 47 45 43 41 39 36 34 34 35 34 31 27 25 23 22 20 20 19 19 20 22 24 24 23 21 21 22 23 23 23 24 25 26 26 26 26 26 26 25 24 23 22 20 19 18 18 18
109 110 108 103 103 105 106 104 101 102 102 102 101 96 92 88 86 84 81 77 78 78 77 75 71 69 69 69 69 71 70 67 66 63 60 58 55 53 51 50 48 46 43 41 38 37 38 38 37 34 29 26 25 23 22 21 21 20 20 21 23 25 25 24 24 24 24 24 25 25 26 27 26 26 27 27 27 27 26 26 25 24 22 21 21 20
111 111 109 106 107 108 107 105 102 102 103 103 102 99 96 93 90 87 83 78 78 79 79 78 74 72 74 72 71 74 73 70 68 66 63 61 59 56 54 52 51 48 45 42 38 37 38 38 37 35 32 29 27 27 25 24 22 22 21 20 21 24 25 26 26 25 25 25 26 26 27 27 27 27 27 28 28 28 28 28 27 26 25 24 23 22
111 110 109 108 109 107 107 106 104 103 104 106 106 104 101 99 96 92 87 82 80 80 79 79 77 77 77 72 71 75 75 71 69 68 65 63 61 59 56 54 53 51 48 45 41 39 39 40 39 37 34 31 30 30 28 25 24 22 21 20 21 22 24 25 26 26 25 25 25 26 27 27 27 27 28 29 29 29 29 29 28 28 27 26 25 24
109 110 111 111 110 108 107 106 104 104 106 107 108 106 103 101 98 95 91 88 86 83 82 81 80 79 77 73 72 76 77 74 71 69 68 65 63 61 58 57 56 53 50 48 45 43 42 42 41 38 35 34 33 32 30 28 26 24 22 22 22 21 22 23 24 25 25 26 25 25 26 27 28 27 28 29 30 30 30 30 30 29 29 28 27 26
106 109 112 113 113 110 109 108 108 108 109 107 107 105 101 99 98 97 94 92 89 86 85 84 81 80 78 74 73 76 78 77 74 72 71 68 65 64 61 60 58 55 53 51 48 46 44 43 41 39 38 37 36 34 33 31 29 26 25 24 23 21 21 22 23 24 25 26 25 25 25 27 28 29 29 29 29 30 30 30 30 30 30 29 28 27
102 107 110 113 113 111 110 111 112 113 113 111 109 106 103 102 102 100 97 94 89 85 85 84 81 81 80 75 73 76 79 82 78 74 74 71 68 66 64 62 59 56 54 52 48 45 44 43 40 39 40 39 38 36 35 33 31 29 27 25 23 22 21 22 23 23 24 24 25 26 26 27 28 29 30 28 28 29 29 30 30 30 30 29 29 28
100 104 108 111 112 111 111 112 113 114 114 113 112 110 108 107 105 103 102 98 92 88 87 85 82 84 82 78 76 78 82 85 82 77 76 74 71 69 68 64 60 57 56 53 49 45 44 44 42 40 42 41 39 37 36 35 33 31 29 26 24 23 22 22 22 22 23 24 25 26 28 29 29 30 30 29 28 28 29 30 30 29 29 29 29 29
98 101 105 109 111 112 113 114 114 115 115 114 113 111 109 107 107 107 106 101 96 94 91 86 84 84 82 79 77 81 86 89 86 81 78 76 73 70 67 64 61 61 60 57 53 48 46 48 47 43 43 43 40 38 37 35 34 32 30 27 25 24 24 23 23 23 23 24 25 27 28 30 30 30 30 30 29 28 29 31 31 31 30 30 29 29
97 100 103 106 109 112 115 116 116 117 117 115 114 112 109 108 108 108 107 104 101 99 93 88 87 86 84 82 81 83 90 91 86 81 77 73 70 65 63 63 63 62 61 58 56 54 50 50 49 45 44 43 41 39 38 36 35 33 32 30 28 27 26 26 25 24 24 24 26 27 27 28 29 30 31 32 31 30 30 30 31 31 31 31 31 31
94 98 101 105 107 111 115 116 116 117 116 114 113 112 110 110 109 108 108 106 103 101 96 93 92 90 88 89 87 88 92 90 85 81 77 74 72 67 66 66 66 65 64 60 57 57 55 53 50 47 46 44 42 40 39 38 37 35 35 33 31 30 29 28 27 26 26 26 27 27 26 27 28 29 31 32 33 33 32 32 31 31 32 32 32 32
93 96 100 103 105 109 113 114 115 116 115 114 113 112 112 112 111 110 109 106 103 101 99 98 96 92 91 92 90 90 91 89 86 84 79 76 74 71 69 68 67 65 63 59 57 55 54 53 51 48 47 45 43 43 42 41 39 38 37 35 34 32 31 31 30 28 27 27 27 26 26 27 28 29 30 32 33 34 34 33 33 32 33 34 33 33
90 93 97 100 103 106 110 112 113 114 115 115 114 113 114 115 113 110 108 104 102 101 101 99 95 92 93 93 91 90 91 88 88 86 80 76 76 74 72 70 69 66 62 59 59 58 56 54 52 50 48 46 46 46 45 44 43 42 40 38 37 35 34 34 32 31 29 28 27 27 27 27 28 29 30 32 33 34 35 35 34 34 35 35 35 35
86 90 95 98 100 103 108 111 113 114 117 117 116 114 115 115 113 110 107 105 104 104 103 100 95 92 94 92 90 91 92 88 87 86 81 79 79 77 74 70 66 65 65 63 60 58 57 56 55 53 51 50 49 48 47 47 46 45 44 42 40 37 36 35 33 32 30 29 29 29 28 28 29 30 30 32 33 34 35 36 36 36 36 36 36 37
82 86 92 95 97 101 106 110 113 115 116 117 116 116 115 113 112 111 108 106 106 106 105 103 99 97 96 90 87 91 93 90 89 86 83 83 83 80 77 72 65 60 61 60 58 59 59 57 56 55 54 54 53 51 51 51 50 48 46 43 39 37 35 35 34 32 32 31 31 31 29 29 30 31 32 32 33 34 35 37 38 39 38 37 37 38
78 82 88 92 95 98 103 109 112 114 114 114 115 115 114 112 112 112 110 108 107 108 107 106 104 102 96 89 88 91 94 93 91 88 86 86 84 82 80 76 69 62 57 56 58 60 61 60 57 57 57 57 55 54 54 54 53 50 47 43 39 37 36 36 35 34 34 34 33 32 31 30 31 32 33 33 34 34 35 37 39 40 40 39 39 39
74 79 84 89 92 96 101 106 110 112 112 111 113 115 114 112 112 112 111 109 108 108 107 106 106 103 96 91 92 94 96 96 93 92 92 89 85 82 80 76 72 68 64 62 62 62 62 61 59 59 59 59 58 57 57 57 55 52 48 44 41 39 38 38 37 36 35 35 35 34 32 32 32 33 34 34 35 35 36 38 40 41 41 41 41 41
71 75 80 85 90 94 99 103 108 110 109 108 112 115 114 111 111 112 111 108 107 107 108 108 107 104 98 96 96 97 99 99 96 95 95 90 84 81 80 78 75 72 69 67 67 65 62 61 60 59 60 61 61 60 60 60 57 53 48 44 42 41 40 39 38 38 38 37 37 36 34 34 34 35 36 36 36 37 37 39 40 41 42 42 42 42
68 72 77 82 87 91 96 101 104 106 105 107 112 114 112 111 110 110 110 109 108 109 109 109 108 106 103 100 98 99 101 101 98 97 95 89 84 81 81 80 79 76 71 67 67 67 65 62 61 60 62 63 63 63 62 61 57 53 48 45 43 43 42 41 41 41 40 39 39 37 36 36 36 37 37 37 38 39 39 40 41 42 42 43 43 43
65 70 74 78 83 88 94 98 100 101 103 107 111 113 112 111 111 111 112 113 112 112 110 108 108 108 106 102 100 101 103 102 100 97 94 89 86 83 82 82 81 78 74 70 68 67 65 64 63 63 65 66 65 64 62 60 56 52 48 47 46 46 44 43 43 43 43 42 40 39 38 37 38 38 38 39 40 40 41 41 42 42 42 43 43 44
62 66 70 74 79 85 91 94 95 98 102 105 109 111 112 111 112 114 115 115 114 112 109 107 108 108 107 105 102 102 104 102 99 96 93 91 88 85 83 83 82 79 76 73 70 68 66 65 66 66 68 68 67 64 62 58 55 52 50 49 48 47 46 45 45 46 45 42 41 41 39 38 39 40 39 40 41 42 42 42 42 42 42 43 44 45
58 62 66 71 76 82 86 88 91 94 98 102 106 110 111 112 114 115 114 113 114 112 109 108 110 110 110 108 105 104 104 102 99 96 93 92 91 88 85 84 82 79 77 74 71 68 68 67 68 69 70 69 67 64 61 57 54 53 52 51 50 48 48 48 48 47 45 43 43 43 41 40 41 41 41 41 42 42 43 43 42 42 43 43 44 45
55 59 64 68 73 78 81 84 87 92 97 101 105 108 110 113 114 113 111 113 115 113 110 110 112 112 111 110 107 106 105 103 100 97 95 93 92 90 86 84 82 80 78 76 72 70 69 69 70 72 72 69 67 64 60 57 55 54 54 53 51 51 50 50 49 48 45 45 46 45 42 42 43 43 42 42 43 43 43 43 43 42 43 43 44 45
52 57 62 66 71 75 78 81 86 91 96 100 103 107 110 112 112 110 111 115 117 115 112 111 112 112 112 110 109 108 107 104 102 99 96 94 93 91 87 85 83 81 79 77 74 72 71 71 73 73 72 69 67 64 60 58 57 57 57 55 53 52 51 51 51 48 46 47 48 46 43 44 45 44 43 42 43 43 43 43 43 42 43 43 44 45
50 54 59 65 69 71 73 77 82 86 92 98 102 105 109 111 111 111 112 115 116 114 112 111 111 111 111 111 110 110 108 106 104 101 97 95 94 91 88 86 83 82 80 77 75 73 73 74 75 74 72 69 66 64 61 60 60 60 59 57 54 51 52 53 52 49 47 48 48 46 45 45 46 44 43 42 42 42 43 43 43 43 44 44 44 45
47 51 57 62 65 67 70 73 78 83 90 97 101 103 107 109 110 109 110 111 112 112 112 110 109 109 111 111 112 111 109 107 104 101 98 96 94 91 89 87 84 82 80 78 76 75 75 76 75 73 71 68 66 65 63 62 62 62 60 57 54 53 54 55 52 50 49 50 49 47 46 46 45 44 42 42 42 42 43 43 43 43 43 43 44 45
44 48 52 57 61 65 68 73 77 83 89 94 98 101 105 108 108 106 105 108 111 112 111 110 108 108 110 112 113 112 110 108 105 101 99 98 95 91 89 88 86 84 81 78 77 77 76 76 74 72 69 68 68 67 66 64 63 63 61 57 56 56 56 55 52 51 51 50 49 48 47 46 45 44 43 43 42 42 43 43 43 43 43 43 43 44
42 45 49 52 57 61 65 70 76 81 85 89 94 99 103 105 105 103 103 105 109 111 112 110 108 107 109 112 113 112 110 108 105 102 100 98 95 91 90 89 87 84 82 80 79 78 77 76 74 72 70 70 70 69 67 66 65 64 61 59 58 58 57 56 54 54 52 51 50 48 47 46 45 44 44 43 43 44 44 45 45 44 44 44 44 44
40 43 46 50 53 57 61 67 73 77 81 86 91 96 100 102 103 102 102 104 108 111 113 112 109 108 109 111 113 112 111 109 106 103 101 98 94 91 90 89 87 84 82 81 80 79 77 75 73 73 72 71 70 70 69 68 66 65 63 61 60 59 58 58 56 55 53 52 51 49 47 46 45 45 45 46 46 46 46 46 46 45 45 45 44 44
38 41 44 48 51 55 58 63 68 73 77 83 89 94 98 100 102 102 102 103 108 112 113 113 111 108 108 110 113 113 111 109 107 103 99 93 91 91 90 88 86 85 83 81 80 78 77 75 74 73 73 72 72 71 70 69 67 65 64 63 61 61 60 59 57 56 55 54 52 49 48 47 48 48 49 49 48 47 46 46 46 46 46 45 45 45
37 39 42 46 49 53 57 61 66 70 75 81 87 92 96 99 102 102 102 103 107 112 113 113 111 108 107 109 112 112 111 109 107 104 95 84 79 84 90 89 86 85 84 82 81 79 77 76 75 74 74 74 73 72 71 69 68 67 66 65 63 63 62 60 58 57 56 55 52 50 50 50 51 51 51 50 48 47 47 47 47 46 46 45 45 46
35 38 41 44 48 51 56 60 64 68 73 79 84 89 94 98 101 102 102 103 106 110 113 112 111 108 107 108 110 112 111 109 107 104 97 83 71 72 82 88 88 86 84 83 81 80 78 77 76 75 75 75 74 73 71 70 69 68 67 66 65 64 63 61 59 59 57 55 54 53 53 53 54 53 52 50 49 48 48 48 47 47 46 46 46 46
Wind_Direction
231 230 229 229 230 229 228 228 227 226 226 227 230 230 226 219 216 217 219 218 213 207 206 205 203 204 205 206 204 203 208 209 205 203 198 197 216 232 238 234 234 236 236 239 241 237 156 106 145 185 170 164 176 169 161 165 163 166 169 161 155 156 156 158 160 159 159 159 160 161 161 160 159 156 148 137 129 123 119 114 109 105 103 102 102 102
231 230 230 230 229 229 228 228 228 227 226 227 229 229 226 219 214 214 216 216 212 205 202 200 196 196 198 201 200 198 201 198 195 196 191 200 218 223 227 226 225 228 232 231 234 235 177 128 143 190 173 161 172 182 170 169 166 165 170 166 159 159 160 160 162 163 162 162 163 165 165 165 163 157 149 140 132 125 120 114 109 106 104 104 103 104
232 230 230 230 229 228 228 228 228 227 227 227 227 228 227 221 214 212 213 214 213 208 203 198 193 193 195 197 195 194 194 190 193 194 184 195 212 216 220 220 217 224 232 230 233 238 202 142 142 186 184 166 165 183 178 174 174 169 171 170 165 163 164 163 164 164 165 165 166 167 169 168 165 159 151 142 134 126 120 114 110 107 105 105 105 105
231 230 230 230 229 228 227 227 228 227 227 228 227 227 227 222 214 211 211 211 211 209 205 201 194 191 192 192 190 190 190 189 194 193 183 189 206 213 216 216 214 222 236 241 241 244 228 155 145 171 186 172 159 171 177 178 184 176 172 175 171 166 166 166 165 166 167 168 168 168 170 169 166 160 152 144 135 128 122 116 111 108 106 105 105 107
230 230 231 231 230 229 228 227 228 228 227 228 228 227 227 224 217 212 211 210 210 208 206 205 200 193 192 192 191 191 189 188 190 192 187 186 199 209 211 213 214 215 232 245 246 248 247 196 150 156 181 177 161 161 170 180 193 186 179 179 176 170 168 167 167 169 170 171 172 170 170 169 165 159 152 144 137 131 125 119 115 111 109 107 107 108
231 231 231 231 231 230 229 228 227 227 227 228 228 227 227 225 220 215 211 210 211 207 204 205 202 197 195 194 193 192 189 187 187 190 188 186 197 207 205 206 210 207 218 231 234 238 243 235 175 148 173 184 170 166 171 175 189 194 187 182 180 175 170 169 170 172 173 174 174 171 168 166 162 158 153 147 140 134 127 122 117 113 110 108 108 108
230 231 231 230 230 230 229 228 227 227 226 227 228 227 227 226 223 218 212 210 211 209 205 204 203 200 197 196 194 192 190 188 188 189 186 188 198 203 201 202 203 202 213 222 224 227 232 245 228 160 166 186 184 176 176 176 183 197 196 187 183 180 174 171 170 172 174 175 174 171 168 166 164 161 156 150 143 137 131 126 121 116 112 109 108 108
230 231 231 230 229 229 229 229 228 227 225 226 228 227 227 226 225 222 215 210 211 211 207 204 205 203 198 199 197 195 197 194 192 192 189 191 198 199 200 203 200 200 210 218 222 225 222 235 244 209 168 182 193 185 181 182 183 192 200 194 188 184 181 176 172 171 173 175 174 173 172 170 167 162 158 154 150 145 140 135 130 123 117 115 112 110
231 231 230 229 229 229 229 229 228 227 225 224 226 226 226 226 225 224 219 213 211 212 209 204 205 205 201 202 199 196 201 201 199 196 191 193 199 199 201 204 202 201 209 216 217 218 218 224 239 239 192 181 197 194 182 182 186 186 195 201 194 188 187 182 176 175 175 176 177 176 175 172 169 166 163 161 157 153 150 145 141 134 127 124 121 118
232 231 230 227 228 228 228 229 228 226 225 224 225 224 225 225 224 224 221 216 212 211 209 205 203 205 205 204 202 197 200 204 205 200 192 193 196 196 198 202 202 200 204 214 217 217 218 225 235 237 213 183 189 198 189 183 187 187 188 198 199 194 192 188 184 182 180 180 180 179 177 174 172 172 170 168 166 163 161 157 152 143 137 134 130 126
231 232 231 227 227 228 228 229 228 226 225 226 225 223 224 224 223 223 222 218 214 209 209 207 203 205 207 206 204 201 201 205 207 205 199 197 195 193 196 200 200 197 197 207 219 219 215 221 234 239 229 202 185 195 201 193 189 188 188 190 197 198 195 193 191 190 188 186 184 182 180 178 177 177 176 176 176 175 173 173 169 161 152 146 140 135
230 230 231 228 226 228 228 229 228 227 226 226 225 223 224 224 223 223 222 220 215 208 210 209 204 206 208 206 205 204 204 206 207 208 206 203 199 194 196 200 201 200 199 203 212 218 217 220 235 243 237 218 189 186 200 203 194 192 191 187 191 199 200 197 197 197 196 193 190 187 184 183 184 184 183 184 187 187 186 185 184 180 173 164 154 143
229 229 230 229 226 226 227 227 227 226 226 226 225 223 224 225 224 222 222 221 215 210 211 210 206 207 208 207 206 205 207 209 209 208 207 206 204 198 197 201 203 202 205 208 209 213 219 223 231 241 242 230 202 184 185 195 196 194 194 191 191 197 202 203 203 203 202 199 197 194 191 191 191 190 190 191 195 197 195 193 194 195 187 180 172 161
229 228 228 228 227 226 227 226 225 225 225 225 225 223 223 225 224 222 222 221 218 212 211 211 209 206 207 210 209 206 207 210 212 210 207 207 205 202 202 203 202 202 208 214 212 210 216 222 231 242 247 242 221 196 183 185 191 190 192 194 194 197 202 206 210 210 208 204 203 201 199 201 200 198 198 198 201 204 205 205 207 210 204 193 190 190
228 228 227 228 227 226 227 226 225 224 224 224 224 222 221 223 223 220 220 220 218 215 213 213 211 206 207 211 210 207 207 208 212 211 207 206 205 206 207 205 204 204 206 210 211 209 213 223 231 237 242 242 232 213 192 184 187 189 189 191 194 198 203 207 212 216 215 210 207 206 206 208 208 207 208 208 210 212 214 217 219 221 222 216 218 224
228 227 226 226 225 225 225 226 224 223 224 223 223 222 220 221 223 220 218 218 218 216 215 214 211 206 207 211 211 210 209 209 211 212 209 206 204 206 207 206 208 209 207 207 208 206 208 220 231 232 234 238 238 228 207 189 186 190 192 190 191 197 204 208 213 218 219 216 212 211 211 213 214 214 215 216 218 219 222 225 227 228 228 230 234 239
228 228 227 225 225 224 224 226 225 223 223 223 223 222 220 220 223 221 217 217 217 216 216 215 213 208 207 212 213 210 211 211 211 212 211 207 205 205 205 204 207 210 210 210 209 205 203 214 227 231 232 236 239 238 224 200 187 186 192 193 193 196 200 206 211 215 217 218 217 216 215 216 217 217 219 221 223 226 228 231 232 232 231 234 240 245
228 228 228 225 224 224 224 225 226 224 223 223 223 222 220 219 221 221 217 216 217 216 215 215 214 212 209 212 213 211 211 213 212 213 212 208 206 206 205 205 207 207 209 212 212 208 205 213 225 230 231 234 235 235 231 216 197 187 188 192 195 198 200 203 207 210 212 214 216 218 219 219 220 220 222 223 225 228 230 231 233 233 233 237 243 247
228 228 228 225 222 223 223 223 225 225 223 223 223 221 219 218 219 220 217 215 216 216 215 214 214 214 211 211 214 212 212 214 214 214 214 211 209 207 206 207 208 206 208 212 214 210 207 213 224 231 231 233 233 231 231 228 218 202 192 191 195 199 202 203 205 208 210 211 213 217 221 223 223 223 223 224 225 226 228 230 232 234 236 240 244 247
228 228 228 225 222 222 222 222 222 223 223 223 223 221 219 218 219 219 217 214 214 215 215 213 213 214 212 211 214 215 213 214 216 215 214 214 212 210 208 209 210 208 207 211 214 212 208 209 216 225 229 231 232 231 231 235 234 223 205 197 197 198 201 203 204 207 208 208 209 213 219 223 224 224 223 223 224 225 227 229 232 234 238 241 243 246
227 228 227 225 223 222 222 221 221 222 222 222 222 221 219 219 219 219 217 214 214 214 214 213 211 213 213 211 214 217 214 214 216 216 214 214 214 213 211 210 211 211 208 210 214 214 213 212 213 216 221 227 231 229 228 231 235 234 223 208 202 200 201 203 204 207 209 209 209 209 214 219 222 223 224 225 225 225 226 229 231 233 235 238 240 243
227 227 226 224 223 222 221 220 220 221 222 222 222 220 218 218 218 218 217 214 215 215 214 213 210 212 214 211 213 219 218 213 215 216 214 213 214 214 212 212 213 213 210 209 211 214 217 218 217 214 213 220 227 228 227 227 230 235 235 225 213 205 205 206 207 208 209 210 211 212 214 217 219 221 223 226 227 227 228 230 232 233 234 235 238 241
227 226 226 225 224 223 222 220 219 220 221 221 221 219 217 217 216 215 215 213 214 215 214 213 210 211 214 212 213 220 221 216 215 217 216 214 214 214 213 213 214 214 213 209 209 213 218 221 220 215 211 215 224 228 227 225 227 231 237 235 224 215 211 211 212 212 211 211 212 215 218 220 221 222 222 225 227 228 230 231 233 234 235 235 237 240
226 225 225 225 224 223 222 221 219 220 221 221 221 219 216 216 216 215 213 212 212 212 213 212 210 211 213 212 213 219 222 220 216 217 218 215 214 214 213 213 214 215 215 213 211 213 218 220 218 213 210 215 223 227 226 225 224 225 230 233 230 224 219 217 216 216 215 215 214 215 218 223 226 227 226 225 228 230 231 233 234 235 236 237 238 240
224 224 224 224 224 222 221 220 219 218 220 220 221 221 218 216 217 216 214 213 211 210 211 211 209 210 211 211 213 218 222 222 218 216 218 217 215 215 213 213 214 215 216 215 213 215 219 221 219 214 211 216 223 226 225 224 223 222 225 229 231 230 227 223 221 219 218 219 217 215 217 221 226 229 230 229 229 232 234 235 236 236 238 239 240 241
224 224 224 223 224 222 221 220 219 218 218 218 218 219 217 216 216 216 214 214 212 210 212 211 209 210 210 209 213 217 220 223 220 216 218 217 215 215 215 214 214 215 217 218 216 217 219 220 222 219 216 219 224 226 226 225 223 223 224 225 228 230 230 228 227 225 224 223 221 218 219 221 225 230 232 231 231 233 236 237 238 239 239 240 241 242
224 223 223 223 223 222 221 221 220 220 218 217 217 217 215 214 214 215 214 212 211 210 212 211 209 210 209 207 210 215 219 222 221 217 217 218 215 215 216 215 214 213 216 217 216 217 219 221 223 223 222 224 226 226 227 227 224 224 224 225 226 228 229 230 230 230 229 227 225 223 222 222 225 229 233 234 233 233 237 239 241 241 241 241 241 242
223 222 222 222 221 221 221 220 220 220 219 217 217 216 216 214 213 213 213 211 209 210 210 210 209 210 209 206 209 215 219 220 220 218 218 219 217 216 217 216 214 213 215 215 213 214 218 222 223 223 224 226 227 226 227 227 225 224 224 225 226 227 228 229 231 231 232 232 231 229 227 226 227 229 232 235 234 233 235 239 242 243 243 242 242 242
223 221 221 221 220 220 221 220 219 220 219 218 216 216 216 215 213 213 213 210 208 209 208 208 209 209 207 205 207 215 220 220 219 218 219 221 221 219 218 217 216 215 216 216 214 213 216 219 220 222 224 226 227 227 227 227 226 225 223 223 224 225 226 227 228 229 231 233 234 234 234 233 232 232 233 236 236 234 233 236 240 242 244 245 244 244
222 221 220 219 219 219 220 220 219 219 220 218 216 215 215 215 214 213 213 211 209 208 207 207 208 207 206 205 206 213 219 219 218 218 218 219 220 218 217 218 217 216 216 215 214 215 216 218 220 222 224 226 227 227 227 226 226 225 224 223 223 224 226 227 228 229 230 232 235 237 238 239 237 236 236 237 239 239 236 235 237 240 242 244 245 246
221 221 220 219 217 218 219 220 219 219 219 219 217 214 214 215 214 213 212 211 209 208 207 207 207 206 207 207 207 212 218 218 217 217 216 217 220 219 217 217 218 218 217 216 216 217 218 220 221 221 223 225 225 226 226 225 224 224 225 224 224 224 226 228 229 229 230 232 236 239 241 242 242 240 239 239 241 242 241 238 237 238 241 242 243 245
221 220 220 219 217 217 218 219 218 217 218 218 217 215 213 214 214 213 212 210 209 209 209 209 208 207 208 208 207 212 217 218 217 217 215 215 219 220 219 218 219 218 217 216 215 216 218 218 219 220 221 223 224 225 226 225 225 224 224 223 224 224 225 228 229 230 231 232 235 237 239 241 243 243 242 241 241 242 243 242 239 238 239 242 243 243
220 219 219 219 217 215 216 218 218 217 216 216 216 215 214 213 213 212 211 209 208 208 208 209 208 208 209 207 207 212 217 217 218 217 214 213 216 219 219 218 219 219 217 216 216 216 218 218 217 218 219 220 222 223 224 225 225 224 224 224 224 225 227 229 232 233 235 235 236 237 238 240 242 244 244 244 243 243 244 244 242 240 239 241 243 244
219 218 219 219 217 215 215 216 217 216 216 215 216 215 213 212 212 212 210 208 208 207 207 207 207 208 209 206 206 213 218 217 217 217 215 213 214 217 217 217 217 218 217 218 219 218 218 218 217 216 217 219 220 221 223 224 225 225 225 226 226 228 230 232 234 236 237 238 238 239 239 240 242 243 244 244 244 244 244 245 245 243 241 241 244 245
219 218 218 218 217 215 215 215 216 216 215 214 215 215 214 211 210 211 210 208 207 207 207 206 206 207 208 205 206 213 218 218 217 217 216 214 213 215 217 217 217 217 215 217 219 217 215 215 215 216 217 218 218 220 222 224 225 225 225 225 226 227 228 231 233 236 237 239 240 241 241 241 242 243 244 245 245 244 244 244 246 246 244 243 244 246
218 217 217 217 216 215 215 214 215 216 214 212 213 215 214 212 210 210 210 208 207 206 206 206 206 207 206 204 205 211 217 218 216 217 217 215 212 213 216 217 217 217 217 218 218 216 214 214 214 215 217 218 218 219 222 224 225 225 225 224 224 225 227 229 232 234 237 238 240 241 242 242 242 243 244 244 245 245 245 244 245 246 246 245 245 246
216 216 216 215 215 215 215 214 214 215 213 211 212 215 214 212 210 209 209 208 207 206 206 206 206 205 205 204 206 210 216 217 215 216 218 216 213 211 214 216 216 216 217 219 218 216 214 214 214 215 217 219 218 218 221 223 224 225 224 224 224 225 226 229 231 233 235 237 239 241 242 242 243 244 244 244 245 246 246 245 245 246 247 247 247 247
215 215 215 215 214 214 214 214 213 213 212 210 211 214 213 212 210 208 207 207 206 206 206 205 204 204 204 205 206 210 216 218 216 216 217 217 214 211 212 216 216 215 216 218 218 216 214 214 214 215 217 219 219 219 221 223 224 225 224 223 224 225 226 229 232 234 235 237 239 241 242 243 244 245 245 245 245 246 247 247 247 247 247 247 248 248
214 214 214 214 214 213 214 214 212 211 211 210 210 211 212 211 210 208 206 206 206 206 205 204 204 204 204 205 206 210 216 218 217 216 216 216 215 212 211 215 216 215 215 217 217 216 214 214 214 215 217 220 221 221 223 224 225 225 224 224 224 225 226 229 231 234 235 237 239 241 243 244 245 246 246 246 246 247 247 248 248 248 248 248 248 248
213 214 213 213 213 214 214 213 211 210 210 210 210 210 210 210 210 208 206 205 205 206 204 203 203 204 204 205 206 210 215 218 217 216 216 216 216 213 211 213 216 215 215 217 218 216 215 214 214 216 219 221 222 223 224 225 225 225 225 225 226 227 227 229 231 234 236 238 240 242 243 244 245 247 247 247 247 248 248 249 250 250 250 249 249 249
212 212 212 212 213 213 214 212 210 208 209 209 209 209 209 209 210 208 205 203 205 205 203 202 203 203 204 204 206 210 215 217 217 216 215 215 216 215 212 213 215 216 215 216 217 216 215 214 215 218 220 222 224 225 225 225 225 225 226 226 226 227 228 229 232 234 236 238 240 241 243 244 246 248 248 248 249 248 249 250 250 251 251 251 250 250
212 210 210 211 212 213 212 211 209 207 207 208 208 208 208 209 209 208 205 203 203 204 202 202 202 203 203 204 206 210 214 216 217 216 215 215 216 216 214 213 214 215 216 216 217 216 215 215 217 219 221 223 224 225 225 225 226 226 227 228 227 228 229 231 233 235 236 239 241 243 244 246 248 250 250 250 250 250 249 250 251 252 253 252 252 251
211 210 209 210 211 212 211 210 209 207 206 206 207 207 207 208 209 207 205 203 202 202 201 202 202 202 203 204 206 209 213 215 216 216 215 215 215 216 215 213 213 214 215 216 216 216 216 216 218 220 222 223 224 225 225 225 226 227 228 229 228 229 231 233 235 236 237 240 243 245 247 248 250 253 254 253 253 252 251 251 252 253 253 253 253 252
210 209 209 210 211 211 210 209 208 207 206 206 206 206 206 208 208 207 204 203 202 201 201 201 201 202 202 204 206 209 212 213 215 215 215 215 215 215 215 214 213 214 215 216 216 216 216 217 218 221 222 223 224 225 225 226 227 228 229 230 230 231 233 235 237 237 238 241 245 247 249 250 253 256 257 256 255 253 252 252 252 252 253 254 254 253
209 208 209 210 210 209 209 208 208 207 206 206 205 204 205 207 207 207 204 202 201 201 200 200 201 201 202 204 206 209 211 213 214 214 215 215 215 215 215 215 214 214 214 215 216 217 217 218 219 221 222 224 225 226 226 227 229 230 231 231 230 231 234 236 238 239 240 243 246 248 250 252 255 257 257 256 255 253 252 252 252 253 254 255 255 254
208 208 208 209 210 209 207 207 207 206 206 205 204 204 204 205 206 206 204 201 201 201 200 200 200 201 202 204 207 209 211 212 213 213 214 215 215 214 215 215 215 214 214 214 216 217 218 219 220 221 222 224 225 227 227 228 230 231 232 231 231 232 234 237 238 240 241 244 246 248 251 253 254 255 255 255 254 253 252 251 252 252 253 254 254 254
207 207 207 207 209 209 207 207 206 206 205 205 204 203 204 204 205 205 203 201 200 200 200 199 200 201 202 204 206 209 211 212 212 213 214 215 215 215 215 216 215 215 214 215 216 217 219 220 221 221 222 223 225 227 227 228 230 231 232 232 232 233 235 237 238 240 242 244 246 248 250 251 252 253 253 253 252 251 250 250 250 251 251 252 253 253
206 206 206 205 206 207 207 207 207 206 204 204 203 203 203 203 203 203 202 200 199 199 199 199 199 200 202 204 206 208 210 211 212 213 213 214 214 215 216 217 216 215 215 216 216 217 219 220 221 222 223 224 225 227 228 228 230 231 232 232 233 234 235 237 239 240 242 244 246 248 249 250 250 251 251 251 250 250 250 250 251 252 252 253 253 254
206 205 204 204 204 205 205 206 207 205 204 203 203 202 202 202 202 202 201 199 199 199 199 199 199 200 202 204 206 208 209 211 212 212 213 213 214 216 218 218 217 217 216 217 217 218 219 220 221 222 224 225 226 228 229 230 231 231 232 233 234 235 236 238 239 241 243 245 247 248 248 248 248 249 250 251 251 251 251 251 252 253 254 254 255 255
206 204 203 202 202 203 203 204 205 204 203 202 202 201 200 200 201 200 199 198 198 198 198 198 199 201 202 204 206 208 209 210 211 212 211 211 213 218 220 220 219 218 218 217 218 219 220 220 221 222 224 225 227 228 230 231 232 232 233 234 235 237 238 239 241 243 245 247 248 248 247 247 248 250 251 252 252 251 251 251 252 253 254 255 255 255
206 205 203 202 202 202 202 203 203 202 202 201 200 200 199 200 200 199 198 198 197 198 197 198 199 201 203 205 206 208 208 209 210 211 210 207 208 215 221 222 221 220 220 219 219 220 221 221 222 223 225 226 228 229 231 232 232 233 234 235 237 238 240 241 242 245 247 248 249 248 247 248 250 251 252 252 251 251 250 251 252 253 254 255 255 256
Height
10901 10906 10912 10913 10912 10913 10917 10922 10924 10928 10933 10935 10936 10941 10947 10952 10955 10957 10959 10961 10963 10965 10967 10969 10971 10975 10978 10980 10982 10984 10986 10988 10990 10992 10992 10993 10997 11000 11000 11001 11001 11000 10999 10999 10998 10997 10995 10994 10995 10996 10996 10995 10995 10994 10994 10994 10994 10995 10996 10996 10997 10998 10998 10999 11002 11003 11005 11006 11007 11008 11009 11010 11011 11013 11014 11015 11016 11017 11017 11018 11018 11018 11018 11019 11019 11020
10896 10902 10905 10903 10904 10908 10912 10917 10920 10925 10929 10930 10933 10937 10942 10948 10951 10954 10956 10958 10961 10962 10964 10966 10968 10970 10974 10976 10978 10980 10982 10984 10986 10989 10989 10993 10998 11000 11000 11000 11000 10999 10999 10999 10998 10996 10995 10994 10995 10996 10996 10995 10995 10995 10995 10995 10995 10996 10996 10997 10998 10999 10999 11000 11002 11004 11006 11007 11008 11009 11010 11011 11013 11014 11015 11017 11017 11018 11018 11019 11019 11020 11020 11021 11021 11021
10890 10896 10895 10892 10896 10902 10906 10911 10915 10920 10923 10925 10929 10933 10937 10943 10947 10951 10953 10955 10958 10960 10961 10963 10965 10967 10969 10972 10974 10977 10979 10981 10984 10986 10987 10991 10996 10998 10999 10999 10997 10998 10998 10998 10997 10996 10995 10994 10994 10995 10996 10996 10995 10996 10996 10996 10996 10996 10997 10998 10998 10999 11000 11001 11003 11005 11007 11008 11009 11010 11012 11013 11014 11015 11017 11018 11019 11019 11020 11020 11021 11021 11022 11022 11022 11023
10883 10885 10882 10883 10890 10896 10901 10906 10909 10914 10917 10920 10924 10928 10932 10937 10942 10947 10949 10951 10954 10956 10959 10961 10962 10964 10967 10970 10972 10974 10977 10979 10982 10984 10984 10986 10992 10995 10996 10996 10996 10996 10997 10998 10997 10996 10995 10994 10994 10995 10996 10996 10996 10996 10997 10997 10997 10997 10997 10998 10999 11000 11001 11002 11004 11006 11008 11009 11010 11012 11013 11014 11016 11017 11018 11019 11020 11020 11021 11021 11022 11022 11023 11023 11024 11024
10873 10873 10872 10878 10886 10890 10896 10900 10903 10908 10912 10914 10918 10923 10927 10932 10937 10942 10945 10948 10951 10954 10958 10960 10962 10963 10965 10968 10970 10972 10974 10976 10979 10982 10982 10983 10987 10991 10992 10993 10995 10996 10997 10998 10998 10996 10995 10994 10994 10994 10996 10996 10996 10996 10997 10997 10998 10998 10998 10999 11000 11001 11002 11004 11005 11007 11009 11010 11012 11013 11014 11015 11017 11018 11019 11020 11021 11021 11022 11023 11023 11024 11024 11025 11025 11025
10863 10864 10867 10874 10880 10884 10889 10893 10897 10901 10905 10909 10913 10917 10921 10926 10932 10937 10941 10945 10948 10952 10954 10956 10959 10962 10964 10966 10968 10970 10972 10974 10976 10978 10980 10982 10985 10989 10991 10993 10994 10994 10995 10997 10998 10996 10995 10995 10995 10994 10995 10996 10996 10997 10997 10997 10998 10998 10998 10999 11000 11002 11003 11004 11006 11008 11010 11011 11013 11014 11015 11016 11018 11019 11020 11021 11021 11022 11023 11024 11025 11025 11026 11026 11026 11026
10855 10855 10860 10867 10872 10877 10881 10885 10889 10894 10899 10904 10907 10910 10914 10921 10928 10932 10938 10942 10944 10947 10950 10953 10956 10959 10962 10964 10967 10969 10971 10972 10974 10976 10979 10981 10985 10989 10992 10992 10992 10992 10993 10996 10997 10996 10995 10995 10995 10994 10995 10996 10997 10997 10997 10997 10998 10999 10999 11000 11001 11002 11004 11005 11006 11008 11010 11012 11013 11014 11015 11016 11018 11019 11020 11021 11022 11023 11024 11025 11026 11026 11027 11027 11027 11028
10846 10846 10851 10859 10864 10868 10873 10878 10881 10885 10893 10898 10899 10903 10909 10916 10922 10927 10933 10938 10940 10942 10947 10951 10954 10956 10960 10963 10965 10969 10970 10972 10973 10975 10977 10980 10984 10988 10989 10989 10989 10990 10992 10994 10995 10994 10995 10995 10995 10995 10994 10996 10997 10997 10997 10997 10998 10998 10999 11000 11001 11002 11004 11005 11007 11008 11010 11011 11013 11014 11015 11017 11018 11019 11021 11022 11023 11024 11025 11026 11027 11027 11028 11028 11029 11029
10833 10836 10843 10850 10855 10860 10865 10868 10871 10877 10886 10889 10890 10897 10904 10910 10916 10921 10926 10932 10934 10938 10944 10949 10951 10955 10958 10960 10963 10967 10969 10971 10972 10973 10976 10978 10982 10985 10986 10987 10987 10989 10991 10992 10993 10993 10994 10995 10995 10996 10995 10995 10997 10997 10997 10998 10998 10998 10999 11000 11001 11002 11004 11005 11007 11008 11009 11011 11012 11014 11016 11017 11019 11020 11021 11023 11024 11025 11026 11027 11028 11028 11029 11029 11030 11030
10822 10826 10831 10840 10847 10851 10855 10857 10862 10871 10878 10880 10883 10893 10899 10903 10908 10912 10919 10925 10929 10935 10943 10946 10948 10951 10954 10957 10960 10964 10966 10969 10970 10972 10974 10977 10980 10983 10984 10986 10987 10987 10988 10989 10991 10993 10994 10995 10995 10995 10995 10995 10996 10997 10997 10997 10998 10998 10998 11000 11001 11002 11004 11005 11007 11008 11009 11010 11012 11014 11016 11018 11019 11021 11022 11023 11024 11026 11027 11028 11029 11029 11030 11031 11031 11031
10812 10815 10820 10833 10841 10843 10845 10848 10855 10865 10871 10872 10879 10887 10890 10893 10899 10905 10912 10918 10924 10934 10940 10941 10945 10947 10949 10954 10957 10960 10962 10964 10967 10970 10972 10975 10978 10981 10982 10984 10985 10985 10986 10988 10991 10992 10992 10993 10994 10995 10995 10995 10996 10997 10997 10997 10997 10997 10998 10999 11000 11002 11003 11004 11006 11007 11009 11010 11012 11014 11016 11018 11020 11021 11022 11023 11025 11026 11027 11028 11029 11030 11031 11031 11032 11032
10798 10804 10812 10823 10831 10833 10836 10841 10849 10858 10863 10866 10873 10880 10882 10885 10891 10899 10906 10912 10922 10933 10934 10935 10940 10942 10946 10951 10953 10956 10959 10960 10963 10966 10970 10972 10975 10976 10978 10981 10982 10983 10984 10987 10990 10991 10990 10991 10994 10995 10996 10995 10995 10996 10997 10998 10997 10997 10998 10998 10999 11001 11002 11004 11005 11006 11008 11010 11012 11014 11016 11018 11019 11021 11022 11024 11025 11026 11027 11028 11029 11030 11031 11032 11032 11032
10785 10795 10801 10808 10817 10821 10825 10832 10840 10848 10855 10859 10864 10871 10874 10877 10884 10893 10900 10907 10919 10926 10926 10929 10933 10937 10942 10945 10948 10952 10954 10957 10959 10962 10966 10969 10972 10974 10975 10977 10979 10980 10981 10984 10987 10987 10988 10989 10992 10995 10996 10995 10995 10995 10996 10997 10998 10998 10998 10998 10999 11000 11001 11003 11004 11005 11007 11009 11012 11014 11016 11017 11019 11020 11022 11023 11024 11025 11027 11028 11029 11030 11031 11032 11032 11033
10775 10785 10790 10795 10804 10812 10816 10823 10831 10839 10845 10849 10854 10862 10867 10869 10876 10887 10894 10902 10912 10917 10918 10921 10926 10933 10937 10939 10943 10947 10949 10952 10955 10958 10963 10966 10969 10972 10974 10975 10977 10977 10978 10981 10983 10984 10986 10988 10990 10993 10996 10995 10995 10994 10994 10995 10996 10997 10997 10998 10998 10999 11001 11002 11003 11004 11006 11009 11011 11013 11015 11016 11018 11020 11021 11023 11024 11025 11026 11028 11029 11030 11031 11032 11032 11033
10763 10770 10777 10783 10793 10803 10808 10813 10822 10828 10832 10836 10842 10850 10857 10860 10868 10879 10887 10894 10902 10907 10911 10914 10921 10929 10931 10932 10937 10941 10943 10947 10950 10953 10959 10963 10966 10970 10971 10973 10975 10976 10977 10979 10981 10982 10985 10988 10991 10994 10995 10995 10995 10994 10993 10993 10994 10995 10996 10997 10998 10999 11000 11001 11002 11004 11006 11008 11010 11012 11014 11015 11017 11019 11020 11022 11023 11025 11026 11027 11028 11029 11031 11032 11032 11033
10748 10756 10762 10768 10778 10789 10795 10800 10808 10814 10819 10826 10832 10839 10849 10855 10860 10869 10878 10885 10892 10898 10903 10908 10915 10922 10923 10924 10930 10935 10939 10942 10944 10949 10954 10958 10962 10966 10968 10971 10973 10974 10975 10977 10978 10979 10983 10987 10991 10993 10994 10994 10995 10994 10993 10992 10993 10994 10995 10996 10997 10998 10999 11000 11002 11003 11005 11007 11009 11011 11012 11014 11016 11018 11019 11021 11022 11024 11025 11026 11027 11029 11030 11031 11032 11033
10736 10742 10745 10754 10768 10779 10787 10791 10796 10802 10811 10818 10824 10832 10844 10850 10852 10860 10871 10878 10883 10891 10898 10904 10909 10913 10915 10918 10924 10931 10935 10937 10940 10943 10948 10953 10957 10960 10964 10968 10970 10972 10972 10973 10975 10977 10980 10985 10989 10992 10993 10993 10994 10994 10993 10992 10991 10992 10994 10995 10996 10997 10998 10999 11001 11002 11004 11006 11008 11009 11011 11013 11014 11016 11018 11020 11022 11023 11024 11025 11026 11028 11029 11030 11031 11032
10722 10727 10729 10745 10762 10770 10777 10781 10784 10792 10802 10808 10813 10822 10834 10840 10843 10851 10862 10869 10876 10885 10892 10898 10903 10907 10911 10914 10919 10925 10927 10930 10934 10938 10942 10947 10951 10955 10959 10962 10965 10967 10969 10970 10972 10976 10980 10982 10986 10989 10990 10991 10992 10992 10992 10991 10990 10990 10991 10993 10994 10995 10996 10998 10999 11001 11003 11004 11006 11008 11009 11011 11012 11014 11016 11018 11020 11021 11022 11024 11025 11026 11028 11029 11030 11031
10710 10713 10715 10734 10752 10758 10762 10767 10771 10781 10791 10797 10802 10811 10822 10829 10834 10841 10853 10863 10871 10878 10883 10889 10894 10899 10906 10909 10911 10916 10919 10922 10927 10932 10937 10942 10946 10950 10954 10956 10959 10963 10966 10967 10970 10975 10978 10979 10983 10986 10987 10989 10990 10990 10990 10990 10990 10989 10989 10990 10992 10993 10995 10996 10998 11000 11001 11003 11004 11006 11007 11009 11011 11013 11014 11016 11018 11019 11020 11022 11023 11025 11027 11028 11029 11030
10695 10694 10701 10725 10739 10741 10743 10750 10759 10769 10778 10785 10790 10801 10813 10822 10827 10834 10845 10856 10863 10867 10874 10882 10887 10892 10899 10902 10902 10907 10911 10915 10920 10926 10932 10937 10942 10946 10948 10951 10954 10958 10962 10965 10967 10970 10972 10973 10977 10981 10984 10986 10987 10988 10989 10989 10989 10989 10988 10989 10990 10991 10993 10995 10996 10997 10999 11000 11002 11004 11005 11007 11009 11010 11012 11014 11015 11017 11018 11020 11022 11023 11025 11026 11027 11028
10676 10678 10692 10713 10720 10720 10727 10739 10750 10757 10765 10772 10779 10793 10807 10815 10822 10828 10838 10848 10854 10859 10867 10875 10881 10886 10889 10894 10895 10898 10903 10909 10914 10919 10926 10931 10936 10940 10944 10946 10949 10953 10957 10961 10963 10965 10967 10969 10971 10976 10980 10983 10985 10986 10986 10987 10988 10988 10988 10987 10988 10989 10991 10992 10994 10995 10996 10998 10999 11001 11002 11004 11006 11008 11010 11011 11012 11014 11016 11017 11019 11021 11022 11023 11025 11026
10657 10666 10681 10693 10698 10705 10717 10730 10739 10746 10754 10762 10769 10782 10795 10803 10811 10818 10829 10842 10849 10854 10860 10866 10874 10876 10877 10885 10889 10889 10894 10902 10906 10911 10919 10924 10929 10934 10939 10941 10945 10948 10953 10957 10959 10961 10963 10966 10969 10972 10975 10979 10981 10983 10983 10984 10985 10986 10987 10987 10987 10987 10988 10990 10991 10993 10994 10996 10997 10999 11000 11001 11003 11005 11007 11009 11010 11012 11013 11015 11016 11018 11020 11021 11022 11024
10646 10658 10670 10678 10685 10697 10707 10717 10728 10734 10741 10746 10752 10765 10778 10786 10795 10805 10819 10832 10838 10845 10852 10858 10865 10865 10868 10880 10885 10883 10888 10896 10901 10906 10912 10918 10923 10928 10933 10936 10940 10944 10948 10953 10955 10956 10958 10961 10965 10968 10971 10974 10976 10978 10980 10981 10982 10984 10985 10986 10986 10986 10987 10988 10989 10991 10993 10994 10996 10997 10999 11000 11001 11003 11004 11006 11007 11009 11011 11012 11014 11016 11017 11019 11020 11021
10635 10644 10653 10662 10670 10683 10695 10707 10720 10726 10729 10734 10741 10753 10767 10778 10788 10798 10809 10816 10822 10832 10840 10847 10854 10858 10864 10874 10877 10876 10881 10888 10895 10900 10904 10911 10917 10922 10927 10931 10934 10939 10943 10948 10951 10953 10955 10957 10960 10964 10967 10970 10972 10974 10976 10978 10979 10981 10983 10984 10984 10985 10985 10986 10988 10990 10991 10992 10994 10996 10997 10998 10999 11001 11002 11003 11005 11006 11008 11010 11011 11013 11014 11016 11018 11019
10622 10627 10637 10645 10653 10667 10681 10691 10701 10707 10712 10723 10735 10748 10765 10777 10783 10790 10798 10804 10812 10823 10829 10836 10846 10853 10859 10867 10869 10871 10875 10879 10887 10893 10896 10904 10911 10915 10920 10925 10929 10934 10939 10942 10946 10948 10951 10953 10955 10959 10961 10964 10967 10970 10972 10974 10976 10978 10979 10981 10983 10984 10984 10985 10986 10987 10989 10990 10992 10994 10995 10996 10997 10998 10999 11001 11003 11004 11006 11007 11009 11010 11012 11014 11015 11016
10606 10614 10623 10632 10641 10656 10667 10673 10680 10686 10693 10706 10719 10733 10751 10762 10768 10777 10788 10796 10809 10820 10824 10831 10842 10846 10851 10860 10863 10865 10867 10868 10876 10885 10889 10896 10903 10908 10913 10918 10925 10931 10934 10938 10942 10945 10947 10950 10951 10954 10956 10959 10963 10966 10968 10970 10973 10975 10976 10978 10981 10982 10983 10983 10984 10985 10986 10988 10990 10992 10993 10994 10995 10996 10997 10999 11001 11002 11004 11005 11006 11008 11009 11011 11012 11013
10591 10601 10610 10618 10630 10643 10651 10658 10668 10675 10683 10695 10706 10717 10730 10742 10753 10765 10774 10785 10802 10812 10814 10824 10834 10836 10843 10853 10854 10854 10856 10859 10867 10877 10881 10887 10895 10900 10906 10913 10921 10926 10929 10934 10938 10942 10944 10946 10948 10949 10951 10955 10959 10963 10965 10967 10970 10972 10973 10976 10978 10980 10981 10981 10982 10983 10984 10986 10987 10989 10990 10991 10992 10993 10995 10997 10999 11000 11001 11002 11003 11005 11007 11008 11009 11011
10576 10586 10595 10605 10617 10628 10635 10644 10655 10663 10672 10684 10695 10707 10719 10731 10741 10749 10758 10775 10791 10796 10803 10817 10826 10830 10840 10850 10849 10845 10844 10847 10857 10866 10872 10880 10887 10895 10903 10911 10916 10919 10922 10927 10932 10936 10940 10941 10943 10946 10948 10952 10956 10959 10962 10964 10967 10969 10970 10973 10975 10977 10978 10979 10980 10981 10982 10983 10984 10985 10987 10988 10989 10991 10992 10994 10996 10998 10999 10999 11000 11002 11004 11005 11006 11008
10560 10570 10580 10590 10603 10612 10617 10626 10637 10645 10655 10669 10683 10698 10711 10721 10731 10738 10750 10765 10775 10781 10796 10810 10815 10821 10832 10839 10839 10833 10830 10839 10853 10864 10873 10881 10888 10898 10904 10908 10911 10914 10918 10923 10927 10931 10934 10935 10938 10942 10945 10949 10953 10956 10959 10961 10963 10965 10967 10969 10971 10973 10974 10975 10977 10978 10979 10980 10981 10982 10984 10986 10987 10989 10990 10991 10993 10994 10995 10996 10997 10999 11000 11002 11003 11005
10547 10556 10564 10574 10588 10596 10600 10611 10625 10633 10644 10659 10675 10690 10701 10711 10721 10731 10742 10754 10765 10776 10788 10795 10798 10810 10820 10823 10824 10820 10819 10835 10852 10861 10869 10876 10882 10891 10896 10898 10902 10905 10910 10916 10921 10925 10929 10931 10935 10939 10942 10946 10950 10953 10955 10958 10960 10961 10963 10965 10967 10968 10970 10972 10973 10975 10976 10977 10978 10979 10981 10983 10985 10986 10987 10988 10989 10990 10992 10993 10994 10996 10997 10998 11000 11001
10535 10543 10550 10560 10572 10580 10588 10601 10614 10625 10637 10651 10664 10678 10688 10697 10709 10720 10731 10746 10761 10772 10779 10781 10788 10801 10808 10810 10815 10814 10815 10830 10844 10850 10860 10870 10875 10882 10887 10890 10894 10900 10906 10914 10919 10923 10927 10930 10932 10935 10939 10943 10946 10948 10951 10953 10955 10957 10959 10961 10962 10964 10966 10968 10969 10971 10972 10974 10975 10977 10979 10980 10981 10983 10984 10985 10986 10987 10988 10990 10991 10992 10993 10994 10996 10997
10522 10532 10539 10547 10559 10570 10580 10590 10601 10614 10626 10636 10648 10663 10674 10683 10696 10710 10725 10742 10756 10765 10771 10777 10786 10796 10799 10804 10813 10813 10812 10823 10834 10843 10857 10867 10869 10873 10879 10883 10888 10896 10904 10910 10913 10917 10921 10925 10929 10932 10935 10938 10941 10944 10946 10948 10950 10952 10954 10956 10958 10960 10962 10963 10965 10967 10968 10970 10972 10973 10975 10976 10977 10979 10980 10981 10982 10983 10984 10986 10987 10988 10989 10990 10991 10993
10512 10521 10527 10534 10547 10560 10568 10575 10587 10598 10606 10616 10633 10650 10662 10674 10689 10702 10716 10731 10742 10751 10759 10771 10785 10791 10791 10799 10811 10810 10807 10816 10827 10839 10852 10858 10859 10863 10870 10877 10883 10890 10896 10901 10906 10912 10916 10919 10923 10926 10929 10933 10936 10938 10940 10942 10944 10947 10949 10951 10953 10956 10958 10959 10961 10963 10965 10967 10968 10969 10971 10972 10974 10975 10976 10977 10978 10979 10981 10982 10983 10984 10984 10986 10988 10989
10502 10510 10516 10524 10536 10547 10554 10562 10572 10580 10590 10607 10624 10635 10648 10665 10680 10692 10705 10719 10731 10739 10749 10761 10773 10777 10781 10797 10809 10805 10802 10809 10819 10830 10841 10846 10849 10855 10862 10870 10877 10884 10891 10898 10903 10908 10911 10914 10918 10920 10923 10927 10931 10933 10934 10936 10938 10941 10944 10947 10951 10954 10956 10956 10958 10960 10962 10963 10963 10965 10967 10968 10970 10971 10972 10973 10974 10976 10977 10977 10978 10979 10980 10982 10984 10985
10492 10500 10506 10514 10525 10536 10543 10549 10556 10565 10582 10603 10616 10626 10640 10656 10669 10681 10694 10707 10717 10727 10738 10750 10757 10763 10778 10796 10802 10796 10795 10800 10809 10820 10828 10833 10841 10849 10856 10865 10873 10880 10888 10893 10897 10901 10904 10908 10912 10915 10917 10921 10925 10927 10929 10930 10933 10936 10940 10944 10947 10949 10951 10952 10954 10956 10957 10958 10959 10960 10962 10964 10965 10966 10967 10969 10970 10971 10972 10973 10973 10974 10976 10978 10979 10980
10483 10490 10496 10504 10515 10524 10529 10536 10545 10557 10576 10598 10611 10618 10630 10644 10657 10670 10683 10695 10707 10719 10732 10742 10749 10760 10775 10786 10788 10785 10783 10788 10799 10809 10813 10821 10835 10847 10854 10862 10870 10875 10879 10883 10888 10894 10898 10901 10905 10908 10910 10913 10918 10922 10925 10925 10927 10930 10935 10939 10942 10944 10946 10948 10950 10951 10952 10953 10954 10955 10958 10959 10960 10961 10962 10964 10965 10966 10968 10969 10969 10970 10971 10973 10974 10975
10474 10481 10488 10495 10504 10512 10519 10527 10536 10547 10569 10592 10601 10603 10616 10634 10648 10660 10675 10690 10705 10715 10722 10729 10739 10754 10766 10773 10776 10777 10772 10776 10788 10796 10802 10817 10834 10845 10850 10855 10861 10865 10869 10875 10881 10887 10892 10896 10899 10902 10904 10905 10910 10915 10918 10918 10921 10926 10930 10934 10937 10939 10941 10943 10945 10946 10947 10948 10949 10951 10953 10954 10955 10956 10957 10959 10960 10961 10963 10964 10965 10966 10967 10969 10970 10971
10466 10472 10479 10485 10493 10502 10509 10516 10526 10543 10565 10582 10585 10591 10609 10626 10638 10652 10668 10681 10691 10698 10705 10717 10732 10745 10754 10761 10768 10768 10763 10767 10778 10786 10797 10816 10830 10837 10843 10846 10850 10857 10864 10869 10875 10880 10886 10891 10894 10896 10897 10898 10902 10907 10909 10912 10916 10921 10926 10929 10932 10934 10937 10939 10940 10941 10942 10943 10944 10946 10948 10949 10950 10951 10953 10954 10955 10956 10958 10959 10960 10961 10963 10964 10966 10967
10458 10464 10470 10477 10486 10493 10498 10505 10521 10540 10555 10565 10571 10583 10599 10613 10626 10641 10653 10663 10672 10680 10694 10712 10726 10735 10744 10753 10759 10758 10755 10760 10770 10781 10797 10812 10821 10828 10835 10839 10843 10851 10858 10863 10868 10875 10881 10885 10888 10889 10889 10890 10895 10900 10903 10908 10913 10917 10921 10924 10926 10928 10931 10933 10934 10934 10936 10937 10939 10941 10943 10945 10946 10947 10948 10949 10950 10951 10953 10954 10955 10957 10958 10960 10961 10962
10452 10458 10465 10472 10479 10485 10490 10500 10517 10532 10543 10553 10564 10575 10587 10602 10615 10625 10634 10650 10663 10673 10688 10705 10716 10725 10736 10743 10748 10749 10750 10755 10766 10779 10793 10804 10811 10819 10827 10831 10837 10845 10852 10857 10863 10870 10875 10879 10881 10881 10881 10884 10889 10894 10899 10904 10909 10913 10916 10918 10921 10924 10926 10927 10927 10928 10930 10933 10935 10936 10938 10940 10940 10941 10943 10944 10945 10947 10948 10949 10951 10953 10954 10955 10956 10958
10446 10453 10460 10466 10471 10476 10484 10496 10511 10524 10535 10546 10555 10565 10578 10590 10598 10608 10627 10646 10657 10667 10683 10696 10703 10712 10722 10730 10737 10742 10744 10751 10761 10773 10785 10795 10801 10810 10818 10825 10832 10839 10845 10851 10858 10864 10869 10872 10874 10874 10875 10879 10884 10890 10895 10900 10905 10908 10910 10912 10916 10918 10919 10920 10922 10923 10926 10928 10929 10930 10933 10934 10935 10936 10938 10940 10941 10942 10943 10945 10946 10948 10949 10950 10952 10953
10443 10448 10454 10460 10465 10471 10480 10492 10504 10514 10524 10533 10544 10557 10568 10576 10585 10603 10625 10637 10644 10657 10675 10684 10690 10700 10710 10718 10727 10732 10735 10744 10754 10764 10776 10786 10793 10802 10811 10820 10827 10833 10839 10846 10852 10857 10862 10865 10867 10867 10870 10875 10880 10885 10891 10896 10900 10902 10904 10907 10910 10910 10912 10915 10917 10919 10921 10922 10922 10925 10928 10929 10929 10931 10933 10935 10936 10938 10939 10940 10942 10943 10944 10945 10947 10948
10438 10443 10449 10454 10459 10465 10475 10485 10494 10503 10513 10523 10534 10546 10556 10565 10578 10597 10612 10621 10631 10647 10662 10672 10682 10693 10702 10711 10718 10722 10727 10737 10745 10755 10767 10778 10786 10794 10804 10813 10821 10827 10833 10839 10845 10851 10856 10859 10860 10861 10865 10871 10876 10881 10887 10891 10893 10895 10897 10900 10902 10904 10907 10909 10911 10914 10917 10916 10917 10920 10923 10924 10924 10926 10929 10931 10932 10933 10935 10936 10937 10938 10939 10940 10942 10943
10434 10439 10444 10448 10454 10462 10472 10481 10490 10500 10509 10515 10523 10535 10547 10558 10570 10584 10597 10611 10626 10641 10653 10664 10676 10687 10697 10704 10709 10712 10719 10728 10737 10748 10760 10769 10778 10788 10797 10806 10814 10820 10827 10833 10840 10845 10849 10851 10853 10856 10862 10867 10871 10876 10881 10884 10886 10888 10890 10893 10897 10900 10902 10903 10905 10909 10911 10911 10913 10916 10917 10919 10920 10922 10925 10926 10928 10929 10930 10931 10932 10933 10934 10935 10936 10937
10430 10434 10439 10444 10451 10460 10469 10478 10486 10493 10499 10505 10515 10527 10539 10551 10562 10575 10591 10609 10625 10638 10648 10658 10670 10681 10690 10696 10699 10704 10711 10720 10730 10742 10753 10762 10771 10781 10790 10798 10806 10814 10821 10828 10833 10838 10841 10844 10848 10853 10859 10864 10868 10871 10875 10877 10879 10881 10884 10888 10893 10895 10895 10897 10901 10904 10905 10906 10908 10910 10912 10914 10916 10918 10920 10921 10922 10924 10925 10926 10927 10927 10928 10930 10931 10932
10427 10432 10437 10443 10449 10455 10462 10469 10475 10482 10489 10498 10511 10522 10532 10544 10557 10572 10589 10606 10620 10631 10642 10653 10664 10674 10681 10687 10691 10696 10704 10713 10724 10736 10746 10755 10765 10775 10783 10791 10799 10807 10815 10822 10826 10830 10835 10840 10845 10850 10855 10859 10861 10864 10868 10871 10873 10875 10879 10884 10887 10889 10890 10893 10896 10897 10899 10901 10904 10906 10908 10910 10912 10913 10915 10916 10917 10918 10919 10920 10921 10922 10923 10924 10925 10926
10425 10429 10434 10440 10446 10452 10458 10463 10468 10475 10485 10496 10507 10518 10528 10540 10553 10568 10584 10600 10612 10623 10634 10645 10655 10664 10671 10678 10683 10689 10697 10707 10718 10729 10739 10749 10760 10770 10777 10784 10792 10801 10809 10815 10820 10824 10829 10835 10840 10845 10848 10851 10853 10857 10861 10864 10866 10869 10873 10877 10880 10883 10885 10887 10890 10891 10894 10896 10899 10901 10903 10905 10907 10908 10909 10910 10911 10912 10913 10914 10915 10916 10917 10919 10920 10921
10423 10426 10431 10436 10442 10447 10454 10459 10465 10473 10483 10493 10503 10513 10525 10537 10550 10563 10578 10593 10605 10615 10626 10636 10646 10654 10663 10670 10675 10681 10690 10700 10712 10723 10734 10744 10756 10765 10770 10778 10787 10796 10803 10808 10813 10819 10824 10829 10834 10838 10842 10845 10848 10851 10854 10857 10859 10863 10866 10870 10873 10877 10879 10881 10883 10886 10889 10891 10894 10896 10898 10900 10901 10902 10903 10904 10905 10906 10908 10909 10910 10911 10912 10914 10915 10917
10420 10424 10428 10433 10438 10443 10450 10456 10462 10471 10480 10489 10498 10509 10521 10533 10545 10557 10571 10585 10596 10607 10618 10629 10638 10647 10655 10663 10668 10674 10683 10694 10706 10718 10731 10745 10757 10763 10767 10774 10783 10790 10796 10802 10807 10813 10819 10823 10828 10832 10836 10839 10841 10843 10846 10850 10854 10857 10860 10863 10867 10870 10872 10874 10878 10881 10883 10886 10889 10891 10893 10894 10895 10896 10897 10898 10900 10902 10903 10904 10905 10906 10908 10909 10911 10911
10419 10423 10427 10431 10435 10440 10446 10451 10458 10467 10476 10483 10493 10505 10517 10528 10538 10550 10563 10576 10588 10599 10611 10623 10633 10641 10649 10655 10661 10668 10677 10689 10700 10713 10728 10745 10757 10761 10764 10770 10777 10783 10789 10795 10801 10807 10812 10817 10821 10825 10828 10831 10833 10837 10840 10844 10848 10850 10853 10856 10860 10863 10865 10869 10873 10875 10878 10881 10883 10885 10886 10887 10888 10889 10891 10893 10895 10897 10897 10898 10900 10901 10903 10905 10905 10906
10418 10421 10425 10429 10433 10438 10442 10448 10455 10463 10472 10480 10490 10501 10512 10521 10532 10544 10557 10570 10581 10593 10605 10617 10627 10635 10642 10649 10655 10662 10672 10684 10696 10709 10724 10739 10750 10755 10759 10764 10770 10776 10783 10789 10796 10801 10805 10810 10815 10818 10820 10824 10827 10831 10834 10837 10840 10843 10847 10851 10854 10856 10859 10864 10867 10869 10872 10875 10878 10879 10879 10880 10882 10884 10886 10888 10890 10891 10891 10893 10894 10896 10898 10899 10899 10900